Mullan Pass, MT

3:03 AM MDT on March 24, 2017 (GMT -0600)
Mullan Pass

Weather History for KMLP - October, 2012

Change the Weather History Date:

Monday, October 1, 2012

  Actual Average (K3TH) Record (K3TH)
Temperature  
Mean Temperature 54 °F -  
Max Temperature 62 °F 64 °F 78 °F (1998)
Min Temperature 46 °F 42 °F 39 °F (2001)
Degree Days  
Heating Degree Days 12    
Growing Degree Days 4 (Base 50)    
Moisture  
Dew Point 28 °F    
Average Humidity 38    
Maximum Humidity 54    
Minimum Humidity 29    
Precipitation  
Precipitation 0.00 in - - ()
Sea Level Pressure  
Sea Level Pressure 30.05 in    
Wind  
Wind Speed 5 mph (West)    
Max Wind Speed 9 mph    
Max Gust Speed 21 mph    
Visibility 10 miles    
Events      
Averages and records for this station are not official NWS values.
T = Trace of Precipitation, MM = Missing Value Source: NWS Daily Summary

Daily Weather History Graph

Daily Weather History Graph

Search for Another Location

Airport or City:

Trip Planner

Search our weather history database for the weather conditions in past years. The results will help you decide how hot, cold, wet, or windy it might be!

Date:

Astronomy

Oct. 01, 2012 Rise Set
Actual Time 6:42 AM PDT 6:21 PM PDT
Civil Twilight 6:11 AM PDT 6:51 PM PDT
Nautical Twilight 5:36 AM PDT 7:27 PM PDT
Astronomical Twilight 4:59 AM PDT 8:03 PM PDT
Moon 6:48 PM PDT (10/1) 8:26 AM PDT (10/1)
Length of Visible Light 12h 39m
Length of Day
11h 38m
Full, 97% of the Moon is Illuminated
Oct 1
Full
Oct 8
Last Quarter
Oct 15
New
Oct 21
First Quarter
Oct 29
Full

Hourly Weather History & Observations

Time (PDT) Temp. Dew Point Humidity Pressure Visibility Wind Dir Wind Speed Gust Speed Precip Events Conditions
12:53 AM 48.0 °F 27.0 °F 44% 30.18 in 10.0 mi WNW 5.8 mph - N/A   Clear
1:53 AM 48.0 °F 26.1 °F 42% 30.17 in 10.0 mi NW 8.1 mph - N/A   Clear
2:53 AM 46.9 °F 24.1 °F 41% 30.17 in 10.0 mi NW 4.6 mph - N/A   Clear
3:53 AM 46.9 °F 23.0 °F 39% 30.17 in 10.0 mi Calm Calm - N/A   Clear
4:53 AM 48.9 °F 21.9 °F 35% 30.17 in 10.0 mi WSW 3.5 mph - N/A   Clear
6:53 AM 48.0 °F 21.9 °F 36% 30.18 in 10.0 mi SW 5.8 mph - N/A   Clear
7:53 AM 50.0 °F 23.0 °F 35% 30.18 in 10.0 mi WSW 3.5 mph - N/A   Clear
8:53 AM 53.1 °F 25.0 °F 34% 30.16 in 10.0 mi Calm Calm - N/A   Clear
9:53 AM 53.1 °F 26.1 °F 35% 30.15 in 10.0 mi Calm Calm - N/A   Clear
10:53 AM 55.0 °F 25.0 °F 31% 30.14 in 10.0 mi Calm Calm - N/A   Clear
11:53 AM 57.9 °F 26.1 °F 30% 30.10 in 10.0 mi Calm Calm - N/A   Clear
12:53 PM 59.0 °F 27.0 °F 29% 30.07 in 10.0 mi Variable 3.5 mph - N/A   Clear
1:53 PM 61.0 °F 28.9 °F 30% 30.04 in 10.0 mi Variable 3.5 mph - N/A   Clear
2:53 PM 59.0 °F 28.9 °F 32% 30.03 in 10.0 mi Variable 3.5 mph - N/A   Clear
3:53 PM 60.1 °F 30.9 °F 33% 30.00 in 10.0 mi Variable 3.5 mph - N/A   Clear
4:53 PM 57.9 °F 30.9 °F 36% 29.98 in 10.0 mi Variable 6.9 mph - N/A   Clear
5:53 PM 55.0 °F 30.9 °F 40% 29.96 in 10.0 mi WSW 6.9 mph 20.7 mph N/A   Clear
6:53 PM 54.0 °F 30.0 °F 40% 29.94 in 9.0 mi Variable 4.6 mph - N/A   Clear
7:53 PM 53.1 °F 30.0 °F 41% 29.92 in 8.0 mi West 8.1 mph 17.3 mph N/A   Clear
8:53 PM 52.0 °F 30.9 °F 45% 29.88 in 10.0 mi WSW 6.9 mph 16.1 mph N/A   Clear
9:53 PM 51.1 °F 32.0 °F 48% 29.87 in 10.0 mi West 5.8 mph - N/A   Clear
10:53 PM 50.0 °F 32.0 °F 50% 29.85 in 10.0 mi WNW 9.2 mph - N/A   Clear
11:53 PM 50.0 °F 34.0 °F 54% 29.82 in 10.0 mi West 8.1 mph 19.6 mph N/A   Clear